• Join FlightAware (Why Join?)
  • Login
  • US Flag 
02:18PM EDT


 

Airport Tracker/Info


-or-


 

Live Flight TrackerFlight Track Log ✈ DAL8943 ✈ 12-Oct-2013 ✈ KMHT - KHPN

Flight Track Log - Related Links

Times and Time Zones

All times are in EDT time to prevent confusion due to time zone crossing. See the DAL8943 flight status page for this flight to view local times or setup timezone preferences in your user account.

Time Position Orientation Groundspeed Altitude Reporting Facility
EDT Latitude Longitude Course Direction KTS MPH feet Rate Location/Type
11:53PM 43.0271 -71.4101 326° Northwest 267 307 3,900  Level FlightAware ADS-B (KBOS)
11:53PM 43.0341 -71.4189 317° Northwest 270 311 4,500 3,780 Climbing FlightAware ADS-B (KBOS)
11:53PM 43.0410 -71.4332 304° West 271 312 5,100 3,840 Climbing FlightAware ADS-B (KBOS)
11:54PM 43.0518 -71.4680 293° West 274 315 6,500 3,840 Climbing FlightAware ADS-B (KBOS)
11:54PM 43.0535 -71.5064 273° West 280 322 7,800 3,720 Climbing FlightAware ADS-B (KBOS)
11:54PM 43.0470 -71.5387 254° West 281 323 9,000 2,700 Climbing FlightAware ADS-B (KBOS)
11:55PM 43.0310 -71.6118 253° West 319 367 10,600 1,980 Climbing FlightAware ADS-B (KBOS)
11:55PM 43.0161 -71.6507 242° Southwest 350 403 11,100 1,680 Climbing FlightAware ADS-B (KBOS)
11:56PM 42.9760 -71.7180 231° Southwest 381 438 12,300 2,160 Climbing FlightAware
11:56PM 42.9490 -71.7622 230° Southwest 392 451 13,300 1,740 Climbing FlightAware ADS-B (KBOS)
11:58PM 42.8720 -71.8900 231° Southwest 393 452 15,000 2,400 Climbing FlightAware
11:58PM 42.8170 -71.9800 230° Southwest 415 478 17,700 3,840 Climbing FlightAware
11:59PM 42.7954 -72.0163 231° Southwest 434 499 18,400 2,520 Climbing FlightAware ADS-B (KBOS)
11:59PM 42.7531 -72.0859 230° Southwest 438 504 19,800 2,100 Climbing FlightAware ADS-B (KSNC)
12:00AM 42.7084 -72.1594 230° Southwest 449 517 20,800 1,740 Climbing FlightAware ADS-B (KSNC)
12:00AM 42.6553 -72.2464 230° Southwest 455 524 22,000 1,020 Climbing FlightAware ADS-B (KSNC)
12:01AM 42.6144 -72.3130 230° Southwest 464 534 22,000  Level FlightAware ADS-B (KSNC)
12:01AM 42.5743 -72.3782 230° Southwest 466 536 22,000  Level FlightAware ADS-B (KSNC)
12:02AM 42.5340 -72.4438 230° Southwest 465 535 22,000  Level FlightAware ADS-B (KSNC)
12:02AM 42.4773 -72.5357 230° Southwest 464 534 22,000  Level FlightAware ADS-B (KSNC)
12:03AM 42.4368 -72.6012 230° Southwest 464 534 22,000  Level FlightAware ADS-B (KSNC)
12:04AM 42.3804 -72.6922 230° Southwest 464 534 22,000  Level FlightAware ADS-B (KSNC)
12:04AM 42.3393 -72.7584 230° Southwest 465 535 22,000 -360 Level FlightAware ADS-B (KSNC)
12:05AM 42.2682 -72.8562 226° Southwest 438 504 21,600 -660 Descending FlightAware ADS-B (KSNC)
12:05AM 42.2230 -72.9128 223° Southwest 436 502 21,200 -960 Descending FlightAware ADS-B (KSNC)
12:06AM 42.1814 -72.9649 223° Southwest 441 507 20,500 -1,080 Descending FlightAware ADS-B (KSNC)
12:07AM 42.1112 -73.0522 223° Southwest 433 498 19,900 -1,020 Descending FlightAware ADS-B (KSNC)
12:07AM 42.0580 -73.1186 223° Southwest 433 498 19,300 -1,020 Descending FlightAware ADS-B (KSNC)
12:08AM 42.0136 -73.1736 223° Southwest 430 495 18,800 -1,140 Descending FlightAware ADS-B (KSNC)
12:08AM 41.9572 -73.2436 223° Southwest 427 491 18,000 -1,740 Descending FlightAware ADS-B (KSNC)
12:09AM 41.9130 -73.2970 222° Southwest 416 479 16,800 -2,520 Descending FlightAware
12:09AM 41.9000 -73.3136 224° Southwest 415 478 16,400 -2,880 Descending FlightAware ADS-B (KSNC)
12:10AM 41.8591 -73.3643 223° Southwest 410 472 14,900 -2,520 Descending FlightAware ADS-B (KSNC)
12:10AM 41.8074 -73.4277 222° Southwest 392 451 13,500 -2,220 Descending FlightAware ADS-B (KSNC)
12:11AM 41.7603 -73.4854 222° Southwest 381 438 11,900 -2,160 Descending FlightAware ADS-B (KSNC)
12:11AM 41.7145 -73.5416 222° Southwest 370 426 10,900 -1,440 Descending FlightAware ADS-B (KSNC)
12:12AM 41.6678 -73.5988 222° Southwest 330 380 10,400 -840 Descending FlightAware ADS-B (KSNC)
12:13AM 41.6321 -73.6424 222° Southwest 309 356 10,000 -720 Descending FlightAware ADS-B (KSNC)
12:13AM 41.6123 -73.6663 222° Southwest 295 339 9,800 -780 Descending FlightAware ADS-B (KSNC)
12:13AM 41.5930 -73.6897 222° Southwest 286 329 9,500 -1,380 Descending FlightAware ADS-B (KSNC)
12:14AM 41.5502 -73.7418 222° Southwest 285 328 8,400 -1,560 Descending FlightAware ADS-B (KSNC)
12:15AM 41.5180 -73.7810 222° Southwest 280 322 7,500 -1,320 Descending FlightAware
12:15AM 41.4940 -73.8100 222° Southwest 254 292 7,100 -1,080 Descending FlightAware
12:15AM 41.4770 -73.8300 221° Southwest 242 278 6,700 -1,260 Descending FlightAware
12:16AM 41.4610 -73.8490 222° Southwest 229 264 6,300 -960 Descending FlightAware
12:16AM 41.4444 -73.8639 214° Southwest 211 243 6,100 -1,020 Descending FlightAware ADS-B (KSNC)
12:16AM 41.4305 -73.8743 209° Southwest 194 223 5,600 -1,740 Descending FlightAware ADS-B (KSNC)
12:17AM 41.3930 -73.9040 211° Southwest 188 216 4,200 -1,980 Descending FlightAware
12:17AM 41.3790 -73.9170 215° Southwest 190 219 3,500 -1,800 Descending FlightAware
12:18AM 41.3590 -73.9360 215° Southwest 190 219 2,800 -1,140 Descending FlightAware
12:18AM 41.3440 -73.9480 211° Southwest 191 220 2,600 -480 Descending FlightAware
12:18AM 41.3380 -73.9490 187° South 188 216 2,600  Level FlightAware
12:19AM 41.3190 -73.9500 182° South 188 216 2,600 180 Level FlightAware
12:19AM 41.3160 -73.9360 106° East 174 200 2,700 240 Climbing FlightAware
12:19AM 41.3014 -73.9257 152° Southeast 176 203 2,700  Level FlightAware ADS-B
12:19AM 41.2898 -73.9176 152° Southeast 174 200 2,700  Level FlightAware ADS-B
12:20AM 41.2700 -73.9030 151° Southeast 174 200 2,700  Level FlightAware
12:21AM 41.2280 -73.8530 138° Southeast 160 184 2,700  Level FlightAware
12:22AM 41.2160 -73.8350 132° Southeast 160 184 2,700  Level FlightAware
12:22AM 41.2010 -73.8130 132° Southeast 150 173 2,700  Level FlightAware
12:22AM 41.1900 -73.8020 143° Southeast 152 175 2,700 -480 Level FlightAware
12:23AM 41.1770 -73.7910 148° Southeast 149 171 2,400 -840 Descending FlightAware
12:23AM 41.1680 -73.7840 150° Southeast 137 158 2,200 -780 Descending FlightAware
12:24AM 41.1490 -73.7697 150° Southeast 132 152 1,800 -840 Descending FlightAware ADS-B
12:24AM 41.1432 -73.7650 149° Southeast 125 144 1,600 -720 Descending FlightAware ADS-B
12:24AM 41.1320 -73.7567 151° Southeast 122 140 1,400 -660 Descending FlightAware ADS-B
12:24AM 41.1244 -73.7509 150° Southeast 126 145 1,200 -540 Descending FlightAware ADS-B
12:26AM 41.0833 -73.7167 150° Southeast 138 159 600 -480 Descending New York TRACON
12:28AM 41.0667 -73.7000 246° West  Level FlightAware Approximate
12:35AM 41.0669 -73.7076 246° West  Level Estimated